Location: Fort Frances
(48.6170°N, 93.4170°W)
Time: 05:35:20
(UTC-05:00)

ISS - All Passes

Search period start: 24 June 2017 00:00
Search period end: 04 July 2017 00:00
Orbit: 401 x 408 km, 51.6° (Epoch: 24 June)

Date Brightness Start Highest point End Pass type
(mag) Time Alt. Az. Time Alt. Az. Time Alt. Az.
24 Jun - 10:11:28 10° SSW 10:14:28 34° SE 10:17:29 10° E daylight
24 Jun - 11:47:34 10° W 11:50:50 65° NNW 11:54:07 10° ENE daylight
24 Jun - 13:24:23 10° WNW 13:27:36 49° N 13:30:50 10° E daylight
24 Jun - 15:00:56 10° WNW 15:04:14 74° SSW 15:07:31 10° ESE daylight
24 Jun - 16:38:12 10° W 16:40:17 16° SW 16:42:21 10° S daylight
25 Jun - 09:19:51 10° SSW 09:22:25 21° SE 09:25:00 10° E daylight
25 Jun - 10:55:18 10° WSW 10:58:36 87° NNW 11:01:55 10° ENE daylight
25 Jun - 12:32:06 10° WNW 12:35:18 47° N 12:38:31 10° ENE daylight
25 Jun - 14:08:43 10° WNW 14:12:02 78° NNE 14:15:20 10° ESE daylight
25 Jun - 15:45:29 10° W 15:48:17 25° SW 15:51:04 10° SSE daylight
26 Jun - 08:28:50 10° SSE 08:30:26 13° SE 08:32:03 10° ESE daylight
26 Jun - 10:03:08 10° SW 10:06:24 64° SSE 10:09:40 10° ENE daylight
26 Jun - 11:39:45 10° W 11:42:59 50° N 11:46:13 10° ENE daylight
26 Jun - 13:16:29 10° WNW 13:19:46 60° NNE 13:23:02 10° E daylight
26 Jun - 14:53:04 10° WNW 14:56:12 40° SSW 14:59:19 10° SE daylight
27 Jun - 09:11:09 10° SW 09:14:15 40° SSE 09:17:22 10° ENE daylight
27 Jun - 10:47:25 10° W 10:50:41 59° NNW 10:53:57 10° ENE daylight
27 Jun - 12:24:13 10° WNW 12:27:27 50° N 12:30:41 10° E daylight
27 Jun - 14:00:46 10° WNW 14:04:02 64° SSW 14:07:18 10° SE daylight
27 Jun - 15:38:23 10° WSW 15:40:01 13° SW 15:41:37 10° SSW daylight
28 Jun - 08:19:24 10° SSW 08:22:09 25° SE 08:24:55 10° E daylight
28 Jun - 09:55:06 10° WSW 09:58:23 78° NNW 10:01:42 10° ENE daylight
28 Jun - 11:31:55 10° WNW 11:35:07 47° N 11:38:20 10° ENE daylight
28 Jun - 13:08:30 10° WNW 13:11:49 87° NNE 13:15:07 10° ESE daylight
28 Jun - 14:45:24 10° W 14:47:59 21° SW 14:50:35 10° SSE daylight
29 Jun - 07:28:03 10° S 07:30:06 16° SE 07:32:09 10° E daylight
29 Jun - 09:02:52 10° WSW 09:06:09 75° SSE 09:09:26 10° ENE daylight
29 Jun - 10:39:34 10° W 10:42:46 48° N 10:45:59 10° ENE daylight
29 Jun - 12:16:15 10° WNW 12:19:31 65° NNE 12:22:48 10° E daylight
29 Jun - 13:52:52 10° W 13:55:54 34° SW 13:58:55 10° SSE daylight
30 Jun - 08:10:45 10° SW 08:13:55 48° SSE 08:17:07 10° ENE daylight
30 Jun - 09:47:10 10° W 09:50:25 55° N 09:53:39 10° ENE daylight
30 Jun - 11:23:57 10° WNW 11:27:11 53° N 11:30:26 10° E daylight
30 Jun - 13:00:29 10° WNW 13:03:43 54° SSW 13:06:56 10° SE daylight
30 Jun - 14:38:45 10° WSW 14:39:36 11° SW 14:40:28 10° SSW daylight
01 Jul - 07:18:52 10° SSW 07:21:46 30° SE 07:24:41 10° E daylight
01 Jul - 08:54:48 10° WSW 08:58:04 70° NNW 09:01:21 10° ENE daylight
01 Jul - 10:31:37 10° WNW 10:34:49 48° N 10:38:02 10° E daylight
01 Jul - 12:08:10 10° WNW 12:11:29 83° SSW 12:14:47 10° ESE daylight
01 Jul - 13:45:15 10° W 13:47:34 18° SW 13:49:54 10° S daylight
02 Jul - 06:27:18 10° S 06:29:39 18° SE 06:32:01 10° E daylight
02 Jul - 08:02:29 10° WSW 08:05:46 85° SSE 08:09:03 10° ENE daylight
02 Jul - 09:39:14 10° W 09:42:26 47° N 09:45:38 10° ENE daylight
02 Jul - 11:15:52 10° WNW 11:19:10 71° NNE 11:22:28 10° ESE daylight
02 Jul - 12:52:34 10° W 12:55:29 29° SW 12:58:22 10° SSE daylight
03 Jul - 05:36:37 10° SSE 05:37:36 11° SE 05:38:36 10° ESE daylight
03 Jul - 07:10:17 10° SW 07:13:30 56° SSE 07:16:44 10° ENE daylight
03 Jul - 08:46:49 10° W 08:50:02 52° N 08:53:16 10° ENE daylight
03 Jul - 10:23:33 10° WNW 10:26:48 56° N 10:30:03 10° E daylight
03 Jul - 12:00:06 10° WNW 12:03:17 46° SSW 12:06:27 10° SE daylight
